Fort Irwin/Barstow, Bicycle L, CA

6:26 PM PST on February 24, 2018 (GMT -0800)
Fort Irwin/Barstow, Bicycle L

Weather History for KBYS - February, 2014

Change the Weather History Date:

Tuesday, February 11, 2014

  Actual Average (KDAG) Record (KDAG)
Temperature  
Mean Temperature 58 °F -  
Max Temperature 68 °F 64 °F 81 °F (1971)
Min Temperature 48 °F 39 °F 23 °F (1955)
Degree Days  
Heating Degree Days 7    
Growing Degree Days 8 (Base 50)    
Moisture  
Dew Point 25 °F    
Average Humidity 28    
Maximum Humidity 39    
Minimum Humidity 20    
Precipitation  
Precipitation 0.00 in - - ()
Sea Level Pressure  
Sea Level Pressure 30.09 in    
Wind  
Wind Speed 7 mph (NE)    
Max Wind Speed 10 mph    
Max Gust Speed 15 mph    
Visibility 10 miles    
Events      
Averages and records for this station are not official NWS values.
T = Trace of Precipitation, MM = Missing Value Source: NWS Daily Summary

Daily Weather History Graph

Daily Weather History Graph

Search for Another Location

Airport or City:

Trip Planner

Search our weather history database for the weather conditions in past years. The results will help you decide how hot, cold, wet, or windy it might be!

Date:

Astronomy

Feb. 11, 2014 Rise Set
Actual Time 6:36 AM PST 5:25 PM PST
Civil Twilight 6:10 AM PST 5:51 PM PST
Nautical Twilight 5:40 AM PST 6:21 PM PST
Astronomical Twilight 5:11 AM PST 6:50 PM PST
Moon 2:52 PM PST (2/11) 4:14 AM PST (2/11)
Length of Visible Light 11h 40m
Length of Day
10h 48m
Waxing Gibbous, 91% of the Moon is Illuminated
Feb 11
Waxing Gibbous
Feb 14
Full
Feb 22
Last Quarter
Mar 1
New
Mar 8
First Quarter

Hourly Weather History & Observations

Time (PST) Temp. Dew Point Humidity Pressure Visibility Wind Dir Wind Speed Gust Speed Precip Events Conditions
12:55 AM 56.5 °F 21.6 °F 26% 30.06 in 10.0 mi NW 10.4 mph 15.0 mph N/A   Clear
1:55 AM 56.1 °F 21.6 °F 26% 30.05 in 10.0 mi WNW 6.9 mph - N/A   Partly Cloudy
2:55 AM 53.6 °F 21.9 °F 29% 30.06 in 10.0 mi Variable 4.6 mph - N/A   Clear
3:55 AM 52.9 °F 22.3 °F 30% 30.06 in 10.0 mi Variable 3.5 mph - N/A   Clear
4:55 AM 52.7 °F 22.3 °F 31% 30.06 in 10.0 mi North 8.1 mph - N/A   Clear
5:55 AM 51.1 °F 22.8 °F 33% 30.09 in 10.0 mi NNW 4.6 mph - N/A   Clear
6:55 AM 48.9 °F 24.6 °F 39% 30.12 in 10.0 mi NNE 8.1 mph - N/A   Clear
7:55 AM 51.8 °F 26.2 °F 37% 30.13 in 10.0 mi North 6.9 mph - N/A   Clear
8:55 AM 57.9 °F 25.5 °F 29% 30.13 in 10.0 mi ENE 4.6 mph - N/A   Clear
9:55 AM 58.8 °F 26.2 °F 29% 30.14 in 10.0 mi ESE 9.2 mph - N/A   Clear
10:55 AM 61.5 °F 25.5 °F 25% 30.14 in 10.0 mi ENE 2.3 mph - N/A   Clear
11:55 AM 65.7 °F 25.3 °F 22% 30.10 in 10.0 mi SSE 4.6 mph - N/A   Clear
12:55 PM 68.4 °F 25.2 °F 20% 30.06 in 10.0 mi Variable 1.2 mph - N/A   Clear
1:55 PM 66.6 °F 25.7 °F 21% 30.04 in 10.0 mi SE 8.1 mph 13.8 mph N/A   Clear
2:55 PM 67.3 °F 26.2 °F 21% 30.03 in 10.0 mi SE 6.9 mph - N/A   Clear
3:55 PM 67.6 °F 26.4 °F 21% 30.03 in 10.0 mi SSE 9.2 mph - N/A   Clear
4:55 PM 65.5 °F 26.6 °F 23% 30.06 in 10.0 mi ESE 6.9 mph - N/A   Clear
5:55 PM 62.6 °F 25.9 °F 25% 30.09 in 10.0 mi ESE 8.1 mph - N/A   Clear
6:55 PM 61.7 °F 25.5 °F 25% 30.11 in 10.0 mi East 5.8 mph - N/A   Clear
7:55 PM 59.5 °F 25.7 °F 27% 30.12 in 10.0 mi Calm Calm - N/A   Clear
8:55 PM 57.7 °F 26.8 °F 31% 30.12 in 10.0 mi NNW 4.6 mph - N/A   Clear
9:55 PM 55.9 °F 25.9 °F 31% 30.13 in 10.0 mi NNE 6.9 mph - N/A   Clear
10:55 PM 56.3 °F 26.1 °F 31% 30.12 in 10.0 mi NNE 5.8 mph - N/A   Clear
11:55 PM 54.0 °F 26.6 °F 35% 30.12 in 10.0 mi NNE 9.2 mph - N/A   Clear